Погода в Могилеве

Погода в Могилеве : погода сейчас, прогноз погоды и архив. Всё, что Вы хотите узнать о погоде в Могилеве!

Поиск расширенной информации на нашем сайте:

Другие новости

Новости СМИ2

Главная страница сайта

Новости сайта

03.07.2017

Напоминаем, что на нашем специализированном сайте Метеоцентр.Азия вы можете получить высокодетализированные автоматические прогнозы погоды по пунктам России, СНГ и мира в авиационном формате (включающие направление и скорость ветра, видимость, явления погоды, количество и форму облачности, нижнюю и верхнюю границу облачности).

Рекомендуем: Срочная компьютерная помощь в сходне - это гарантия качества.

Погода в Могилеве - сегодня

Время (UTC), дата Ветер
(°,м/с) 
Видим.   Явления Облачность Т
(°С)
Тd
(°С)
f(%) Тe
(°С)
Pmin
(гПа)
dP
(гПа)
Po
(мм)
O2
(г/м3)
Тmin Tmax R s Состояние
почвы
18 19.08.17 180 (Ю) 10 км    8/0 верхняя 
[Ci sp]
+26.5 +12.8 43 +32  1016.5  -0.5  746  272    +31.7       
21 19.08.17 180 (Ю) 10 км    6/0 верхняя 
[Ci sp]
+21.3 +12.5 57 +26  1017.7  0.8  747  277           
00 20.08.17 160 (Ю) 10 км    6/0 верхняя 
[Ci sp]
+17.7 +11.9 69 +22  1018  747  280           
03 20.08.17 150 (ЮВ) 10 км    6/0 средняя 
[Ac trans]
+16.6 +11.7 73 +21  1018.5  0.4  747  281           
06 20.08.17 150 (ЮВ) 12000 м    8/0 средняя, верхняя 
[Ac trans|Ci sp]
+21.2 +12.4 57 +26  1018  -0.1  747  277  +16.4         
09 20.08.17 160 (Ю) 15000 м    8/0 средняя, верхняя 
[Ac trans|Ci sp]
+26.7 +11.8 39 +30  1017.5  -0.1  747  272           
12 20.08.17 170 (Ю) 8-10{12}  15000 м    8/1 1000 м средняя, верхняя 
[Cu hum|Ac trans|Ci sp]
+30.5 +10.2 28 +32  1016.5  -0.8  746  269           
15 20.08.17 160 (Ю) 9-11{13}  15000 м    8/1 1000 м средняя, верхняя 
[Cu hum|Ac trans|Ci sp]
+29.5 +9 28 +30  1015.5  -1  745  270           
18 20.08.17 140 (ЮВ) 4{12}  15000 м    8/0 средняя, верхняя 
[Ac trans|Ci sp]
+22.7 +10.4 46 +25  1016.1  0.1  745  275    +31.1       
21 20.08.17 150 (ЮВ) 14000 м    4/0 верхняя 
[Ci sp]
+19.4 +9.9 54 +21  1015.9  -0.5  745  279           
00 21.08.17 150 (ЮВ) 12000 м    4/0 верхняя 
[Ci sp]
+18.2 +10.6 61 +21  1015.1  -0.9  744  279           
03 21.08.17 160 (Ю) 11000 м    6/0 средняя, верхняя 
[Ac trans|Ci sp]
+16.3 +10.5 69 +19  1014.5  -0.7  744  281           
06 21.08.17 150 (ЮВ) 10 км    8/6 1500 м кучево-дожд., средняя, верхняя 
[Cb calv|Ac trans|Ci sp]
+19.7 +12.4 63 +26  1013.1  -1.1  743  277  +16         
09 21.08.17 220 (ЮЗ) 10 км  {ливн. осадки}  8/0 средняя, верхняя 
[Ac trans|Ci sp]
+21.4 +14.8 66 +30  1013.3  0.4  743  275      0.0     
12 21.08.17 320 (СЗ) 10 км  {ливн. осадки}  8/0 средняя, верхняя 
[Ac trans|Ci sp]
+24.9 +13 48 +31  1013.2  0.2  743  272           
15 21.08.17 340 (С) 10 км  слаб. ливневой дождь  8/4 1500 м кучево-дожд., средняя, верхняя 
[Cb calv|Ac trans|Ci sp]
+23.1 +14.1 57 +30  1012.8  -0.6  743  273      0.0     
18 21.08.17 260 (З) 9000 м  слаб. ливневой дождь  9/8 570 м кучево-дожд., средняя, верхняя 
[Cb calv|Ac trans|Ci sp]
+19.1 +16.4 84 +30  1014.2  1.1  744  277    +25.3  0.0     
21 21.08.17 320 (СЗ) 9000 м    10/8 500 м средняя 
[Sc|Ac As]
+16.1 +15.1 94 +26  1013.4  -1  743  280      0.3     
00 22.08.17 290 (З) 8000 м  слаб. ливневой дождь  10/8 570 м кучево-дожд., средняя 
[Cb calv|Ac As]
+14.9 +14 94 +22  1013.1  -0.4  743  281      0.8     
03 22.08.17 320 (СЗ) 7000 м  слаб. дождь{ливн. осадки}  10/10 120 м 
[Frnb|Ns]
+14.2 +13.6 96 +22  1013.1  -0.1  743  282         
06 22.08.17 320 (СЗ) 8000 м  в посл. час дождь{ливн. осадки}  10/10 100 м верхняя 
[Frnb|Cs]
+14.6 +13.3 92 +21  1013.2  0.1  743  281         
09 22.08.17 360 (С) 10 км    10/10 270 м 
[St]
+16 +14.2 89 +24  1012.2  -0.8  742  280           
12 22.08.17 340 (С) 10 км  {ливн. осадки}  10/10 360 м 
[St]
+17.1 +14.3 84 +25  1011.2  -0.9  742  278      0.0     
15 22.08.17 350 (С) 10 км    9/9 540 м 
[Sc]
+16.7 +13.3 80 +23  1010.5  -0.8  741  279      0.0     
18 22.08.17 320 (СЗ) 6000 м  слаб. ливневой дождь  10/10 270 м кучево-дожд. 
[Cb calv]
+14.6 +13.7 94 +21  1010.4  -0.3  741  280    +17.5  0.8     
Время (UTC), дата Ветер
(°,м/с) 
Видим.   Явления Облачность Т
(°С)
Тd
(°С)
f(%) Тe
(°С)
Pmin
(гПа)
dP
(гПа)
Po
(мм)
O2
(г/м3)
Тmin Tmax R s Состояние
почвы

Для получения пояснительной информации подведите курсор к названию столбца.

ПОГОДА в Могилеве - архив

Всё, что Вы хотите узнать о погоде в Могилеве - удобно и подробно!

Выберите нужную дату (начиная с 1 января 2015* года) и нажмите кнопку "Найти".
Будут отображены архивные сводки погоды по пункту Могилев, начиная с указанной даты.


Отображать данные в формате CSV (для использования в таблицах Excel)


Внимание! Наш архив погоды предназначен исключительно для личного некоммерческого использования в познавательных целях. Если Вам необходимы официальные справки о состоянии погоды (для производственных, юридических, коммерческих и т.п. целей), обращайтесь в органы Росгидромета.

*Примечание: данная дата относится к архиву по метеостанциям СССР (Россия, СНГ, Балтия).
Архив по метеостанциям Зарубежной Европы и Азии (кроме Китая) хранится 10 дней, по другим регионам земного шара (Китай, Африка, Америка, Австралия, Океания) - 1 день.

Могилев - район местоположения метеостанции


Название, широта, долгота, высота метеостанции:
Могилев 53.9°ш. 30.1°д. 192 м над ур. моря [Беларусь]

Дополнительная информация

В oтличие oт бoльшинства пoгoдных сайтoв мы публикуем пoдрoбную метеoинфoрмацию в детальнoм прoфессиoнальнoм фoрмате.

Характеристики температуры и влажнoсти вoздуха измеряются на высoте 2 м в тени вдали oт зданий и деревьев.
Скoрoсть ветра измеряется на высoте 10 м (на урoвне рoста челoвека скoрoсть ветра ниже в 1.5-2 раза). Если метеoстанция нахoдится в гoрoде или в лесу, тo скoрoсть ветра занижена на 2-4 м/с пo сравнению с oткрытым местoм. Скoрoсть ветра над акватoриями крупных рек и oзёр, а также на вершинах хoлмoв на 2-5 м/с выше, чем в oбычных услoвиях.
Атмoсфернoе давление в разных тoчках местнoсти мoжет значительнo oтличаться oт давления на метеoстанции, в зависимoсти oт услoвий рельефа (при пoдъёме на 10 м давление пoнижается примернo на 1 мм рт.ст.).